Home > Time Zones > World Clock > Weather > Palau > Koror > Past weeks

Flag for Palau Weather past 2 weeks in Koror, Palau

Now
81 °F

Mostly cloudy.


Feels Like: 89 °F
Forecast: 80 / 88 °F
Wind: No wind

Location: Koror / Palau Island

Current Time: Aug 24, 2014 at 2:55:44 AM

Latest Report: Aug 24, 2014 at 1:50 AM


Visibility: 14 mi

Pressure: 29.85 "Hg

Humidity: 100%

Dew point: 81 °F

Location of KororLocation

Historic Weather in Koror — Graph

°F

Koror temperature yesterday

Maximum temperature yesterday: 86 °F (at 1:50 PM)
Minimum temperature yesterday: 81 °F (at 12:53 AM)
Average temperature yesterday: 83 °F

Past Weeks' High & Low Weather Summary

 TemperatureHumidityPressure
High90 °F (Aug 9, 1:53 PM)100% (Aug 9, 12:54 AM)29.95 "Hg (Aug 9, 12:54 AM)
Low79 °F (Aug 9, 3:54 PM)71% (Aug 19, 1:50 PM)29.76 "Hg (Aug 11, 4:51 PM)
Average83 °F92%29.85 "Hg
* Reported Aug 9 12:54 AM — Aug 24 12:54 AM, Koror, Weather by CustomWeather, © 2014

Note: Actual official high and low records may vary slightly from our data, if they occured in-between our weather recording intervals... More about our weather records

Advertising

Koror weather history for previous 24 hours

 ConditionsComfort  
Time TempWeatherWind HumidityBarometerVisibility
12:54 AM
Aug 24
82 °FPassing clouds.No wind94%29.86 "Hg14 mi
11:51 PM
Aug 23
82 °FMostly cloudy.No wind94%29.88 "Hg14 mi
10:50 PM81 °FMostly cloudy.No wind100%29.89 "Hg14 mi
9:55 PM82 °FMostly cloudy.No wind100%29.89 "Hg14 mi
8:51 PM82 °FSprinkles. Mostly cloudy.No wind100%29.89 "Hg10 mi
7:53 PM82 °FMostly cloudy.No wind100%29.87 "Hg14 mi
6:52 PM84 °FMostly cloudy.No wind94%29.85 "Hg14 mi
5:55 PM84 °FMostly cloudy.5 mph89%29.84 "Hg14 mi
4:53 PM84 °FBroken clouds.7 mph89%29.82 "Hg14 mi
3:54 PM84 °FBroken clouds.10 mph89%29.80 "Hg14 mi
2:50 PM84 °FMostly cloudy.12 mph89%29.79 "Hg14 mi
1:50 PM86 °FMostly cloudy.12 mph79%29.78 "Hg14 mi
12:55 PM84 °FMostly cloudy.10 mph89%29.80 "Hg14 mi
11:50 AM82 °FMostly cloudy.13 mph100%29.84 "Hg14 mi
10:50 AM82 °FCloudy.12 mph100%29.89 "Hg14 mi
9:50 AM82 °FCloudy.5 mph89%29.90 "Hg14 mi
8:50 AM81 °FMostly cloudy.7 mph94%29.92 "Hg14 mi
6:55 AM81 °FSprinkles. Mostly cloudy.6 mph100%29.90 "Hg12 mi
4:54 AM81 °FMostly cloudy.No wind100%29.85 "Hg14 mi
3:51 AM82 °FMostly cloudy.5 mph100%29.85 "Hg13 mi
2:52 AM82 °FMostly cloudy.No wind94%29.86 "Hg13 mi
Weather by CustomWeather, © 2014

See weather overviewHow to use our weather pages